Haines, AK

7:10 PM AKDT on April 25, 2018 (GMT -0800)
Haines

Weather History for PAHN - August, 2012

Change the Weather History Date:

Saturday, August 11, 2012

  Actual Average Record
Temperature  
Mean Temperature 54 °F -  
Max Temperature 64 °F 63 °F 85 °F (1989)
Min Temperature 44 °F 50 °F 37 °F (1973)
Degree Days  
Heating Degree Days 12    
Growing Degree Days 4 (Base 50)    
Moisture  
Dew Point 48 °F    
Average Humidity 89    
Maximum Humidity 100    
Minimum Humidity 56    
Precipitation  
Precipitation 0.01 in - - ()
Sea Level Pressure  
Sea Level Pressure 30.14 in    
Wind  
Wind Speed 1 mph (SE)    
Max Wind Speed 10 mph    
Max Gust Speed -    
Visibility 8 miles    
Events Rain    
Averages and records for this station are not official NWS values.
T = Trace of Precipitation, MM = Missing Value Source: NWS Daily Summary

Daily Weather History Graph

Daily Weather History Graph

Search for Another Location

Airport or City:

Astronomy

Aug. 11, 2012 Rise Set
Actual Time 5:12 AM AKDT 9:00 PM AKDT
Civil Twilight 4:20 AM AKDT 9:51 PM AKDT
Nautical Twilight 3:03 AM AKDT 11:06 PM AKDT
Astronomical Twilight 1:39 AM AKDT 12:34 AM AKDT
Moon 11:59 PM AKDT (8/11) 5:14 PM AKDT (8/11)
Length of Visible Light 17h 30m
Length of Day
15h 48m
Waning Crescent, 31% of the Moon is Illuminated
Aug 11
Waning Crescent
Aug 17
New
Aug 24
First Quarter
Aug 31
Full
Sep 8
Last Quarter

Hourly Weather History & Observations

Time (AKDT) Temp. Dew Point Humidity Pressure Visibility Wind Dir Wind Speed Gust Speed Precip Events Conditions
12:54 AM 48.0 °F 46.9 °F 96% 30.18 in 10.0 mi Calm Calm - N/A   Partly Cloudy
1:52 AM 46.4 °F 46.4 °F 100% 30.17 in 2.0 mi Calm Calm - N/A   Clear
1:54 AM 46.9 °F 46.0 °F 97% 30.18 in 2.5 mi Calm Calm - N/A   Partly Cloudy
2:01 AM 46.4 °F 46.4 °F 100% 30.17 in 10.0 mi Calm Calm - N/A   Scattered Clouds
2:54 AM 45.0 °F 45.0 °F 100% 30.17 in 4.0 mi Calm Calm - N/A   Clear
3:44 AM 44.6 °F 42.8 °F 93% 30.16 in 2.0 mi Calm Calm - N/A   Partly Cloudy
3:54 AM 45.0 °F 44.1 °F 97% 30.17 in 10.0 mi Calm Calm - N/A   Mostly Cloudy
4:46 AM 44.6 °F 44.6 °F 100% 30.15 in 2.0 mi Calm Calm - N/A   Mostly Cloudy
4:54 AM 45.0 °F 45.0 °F 100% 30.16 in 5.0 mi Calm Calm - N/A   Partly Cloudy
5:54 AM 46.9 °F 46.0 °F 97% 30.16 in 10.0 mi Calm Calm - N/A   Overcast
6:54 AM 48.0 °F 48.0 °F 100% 30.16 in 10.0 mi Calm Calm - N/A   Overcast
7:54 AM 51.1 °F 48.9 °F 92% 30.16 in 10.0 mi Calm Calm - N/A   Overcast
8:54 AM 53.1 °F 50.0 °F 89% 30.15 in 10.0 mi Calm Calm - N/A   Overcast
9:54 AM 57.9 °F 48.9 °F 72% 30.13 in 10.0 mi WNW 10.4 mph - N/A   Scattered Clouds
10:54 AM 61.0 °F 48.0 °F 62% 30.13 in 10.0 mi WNW 8.1 mph - N/A   Partly Cloudy
11:54 AM 63.0 °F 46.9 °F 56% 30.12 in 10.0 mi West 4.6 mph - N/A   Overcast
12:54 PM 57.0 °F 51.1 °F 81% 30.12 in 10.0 mi SE 5.8 mph - N/A   Clear
1:54 PM 55.9 °F 50.0 °F 80% 30.14 in 10.0 mi ESE 8.1 mph - 0.00 in Rain Light Rain
2:54 PM 55.9 °F 52.0 °F 87% 30.14 in 10.0 mi SE 4.6 mph - 0.01 in Rain Light Rain
3:54 PM 57.0 °F 52.0 °F 83% 30.13 in 10.0 mi Calm Calm - 0.00 in Rain Light Rain
4:54 PM 57.0 °F 51.1 °F 81% 30.12 in 10.0 mi Calm Calm - 0.00 in   Overcast
5:54 PM 57.9 °F 51.1 °F 78% 30.12 in 10.0 mi ESE 4.6 mph - N/A   Overcast
6:54 PM 55.9 °F 50.0 °F 80% 30.12 in 10.0 mi East 5.8 mph - N/A   Overcast
7:54 PM 55.0 °F 51.1 °F 86% 30.12 in 10.0 mi Calm Calm - 0.00 in   Overcast
8:54 PM 53.1 °F 51.1 °F 93% 30.12 in 10.0 mi Calm Calm - N/A   Overcast
9:54 PM 51.1 °F 50.0 °F 96% 30.12 in 10.0 mi Calm Calm - N/A   Scattered Clouds
10:54 PM 51.1 °F 50.0 °F 96% 30.12 in 10.0 mi Calm Calm - N/A   Mostly Cloudy
11:54 PM 51.1 °F 50.0 °F 96% 30.13 in 10.0 mi Calm Calm - 0.00 in   Mostly Cloudy